sat.trackr.live / text

‹ back to catalog

STARLINK-11435 [DTC]

NORAD 62891 · 2025-024N

PAYLOAD ACTIVE UNKNOWN

§ Identity

Operator
Country
US
Launch date
2025-02-04
Launch site
AFETR
Launch vehicle
Mass (kg)
RCS (m²)

Purposes: comms

External: N2YO · Heavens-Above · Gunter

§ Orbital elements

Epoch: 2026-05-25T04:30:13.784256Z

Period
91.67 min
Inclination
43.0002°
Eccentricity
0.0001803
Mean motion
15.70880018 rev/d
Perigee alt
355.2 km
Apogee alt
357.6 km
Semi-major
6,734.5 km
B*
1.1592e-3
RAAN
80.7132°
Arg perigee
256.6404°
Mean anomaly
103.4262°
Rev number
7,549

§ Raw data

STARLINK-11435 [DTC]1 62891U 25024N   26145.18765954  .00151291  00000+0  11592-2 0  99902 62891  43.0002  80.7132 0001803 256.6404 103.4262 15.70880018 75498

JSON: /api/v1/satellites/62891 · /tle

For live sub-satellite position, see the globe view (requires WebGL).

§ Visibility from observer

Set your observer location to see the next 7 days of passes ≥ 10°. The values pass through the URL so the page stays shareable.

No JS? Fill the form by hand. The geolocation button needs JavaScript.